Regional Weather Roundup
Issued by NWS Newport/Morehead, NC

Current Version | Previous Version | Graphics & Text | Print | Product List | Glossary On
Versions: 1 2 3 4 5 6 7 8 9 10 11 12 13 14 15 16 17 18 19 20 21 22 23 24 25 26 27 28 29 30 31 32 33 34 35 36 37 38 39 40 41 42 43 44 45 46 47 48 49 50
000 ASUS42 KMHX 270913 RWRMHX WEATHER ROUNDUP FOR EASTERN NORTH CAROLINA NATIONAL WEATHER SERVICE NEWPORT/MOREHEAD CITY NC 500 AM EDT WED JUL 27 2016 NOTE: "FAIR" INDICATES FEW OR NO CLOUDS BELOW 12,000 FEET WITH NO SIGNIFICANT WEATHER AND/OR OBSTRUCTIONS TO VISIBILITY NCZ015>017-031-032-045>047-102-103-271000- NORTH COAST CITY SKY/WX TMP DP RH WIND PRES REMARKS EDENTON CLOUDY N/A N/A N/A NE5 29.94R ELIZABETH CITY LGT RAIN 78 74 87 N7 29.94R KITTY HAWK CLOUDY 82 76 84 W6 29.91F MANTEO N/A 80 78 92 W8 29.92F $$ NCZ045>047-081-094-103-104-271000- CENTRAL COAST CITY SKY/WX TMP DP RH WIND PRES REMARKS FRISCO PTCLDY 82 77 84 W8 29.95F $$ NCZ095-097-098-100-101-271000- SOUTHERN COAST CITY SKY/WX TMP DP RH WIND PRES REMARKS BEAUFORT PTCLDY 82 77 84 SW9 29.96F CEDAR ISLAND NOT AVBL JACKSONVILLE MOCLDY 79 73 82 SW9 29.96F PINEY ISLAND NOT AVBL WILMINGTON PTCLDY 80 74 81 SW9 29.98S $$ NCZ011>013-027>030-043-044-078>080-089-090>093-098-271000- COASTAL PLAIN CITY SKY/WX TMP DP RH WIND PRES REMARKS AHOSKIE CLOUDY 73 72 98 CALM 29.94R CLINTON CLEAR 78 76 94 CALM 29.96S ELIZABETHTOWN CLEAR 78 75 89 SW7 29.97S GOLDSBORO CLOUDY 79 79 100 S3 29.95S GREENVILLE CLOUDY 81 77 89 SW5 29.96S HAVELOCK PTCLDY 78 73 84 SW9 29.96F KENANSVILLE NOT AVBL KINSTON PTCLDY 77 75 93 CALM 29.96F NEW BERN PTCLDY 78 74 87 CALM 29.97F RICHLANDS CLEAR 77 75 93 SW7 29.97S ROCKY MOUNT MOCLDY 76 76 100 CALM 29.95S WASHINGTON PTCLDY 78 75 89 SW3 29.94S WHITEVILLE PTCLDY 79 74 82 CALM 29.98S $$ AMZ130-135-150-152-154-156-158-170-250-252-270-ANZ085-086-088-633-658-670-271000- MARINE OBSERVATIONS STATION/POSITION TIME TEMP WIND PRES WAVE SWELL AIR SEA DIR/SP/G HT/PER HT/PER (UTC) (F) (DEG/KT/KT) (MB) (FT/S) (FT/S) CHESAPEAKE LIGHT NOT AVBL 64 E VA BEACH 0850 81 79 290/ 4/ 6 1013.1 3/ 6 3/ 6 DUCK 0800 83 64 260/ 11/ 13 1012.6 2 E DUCK 0811 66 N/A 1/ 5 OREGON INLET 0800 82 85 240/ 14/ 15 1013.4 13E OREGON INLT 0900 82 N/A 3/ 5 2/ 8 HATTERAS CG 0800 81 83 230/ 7/ 9 1014.1 DIAMOND BUOY 0850 84 84 240/ 16/ 17 1014.1 4/ 5 CAPE LOOKOUT 0900 83 250/ 11/ 14 1014.5 BEAUFORT LAB 0800 82 83 240/ 4/ 11 1014.3 30 SE NEW RVR IN 0808 84 84 250/ 16/ 21 1015.1 30 SE NEW RVR IN 0825 84 N/A 4/ 5 27 SE WRIGHTSVLE 0808 84 84 240/ 16/ 21 1015.4 5 SE WRIGHTSVLE 0808 81 80 240/ 8/ 12 1016.2 225 S CAPE HAT 0850 84 84 260/ 14/ 16 1017.2 3/ 8 2/ 8 41 SE CHARLESTON 0850 85 86 240/ 17/ 19 1016.0 4/ 5 $$

USA.gov is the U.S. government's official web portal to all federal, state and local government web resources and services.